Location: Vista Encantada
(35.1109°N, 106.5681°W)
Time: 09:23:04
(UTC+00:00)

SL-16 R/B - Pass Details

Date: 29 October 2020
Orbit: 842 x 846 km, 71.0° (Epoch: 04 December)

Event Time Altitude Azimuth Distance (km) Brightness Sun altitude
Rises 12:18:41 0° 348° (NNW) 3,410 5.2 -14.1°
Reaches altitude 10° 12:21:23 10° 358° (N) 2,472 4.5 -13.6°
Maximum altitude 12:26:30 34° 62° (ENE) 1,367 3.9 -12.6°
Drops below altitude 10° 12:31:35 10° 126° (SE) 2,461 5.7 -11.5°
Sets 12:34:15 0° 136° (SE) 3,392 6.3 -11.0°
